星链-30341 (STARLINK-30341 )

导读

STARLINK-30341是美国太空探索技术公司SpaceX星链卫星网络中的一员,于2023年8月27日发射升空,属于星链项目批量部署的卫星之一。该卫星主要为全球提供低延迟、高速率的宽带互联网服务,尤其覆盖偏远地区与网络基础设施薄弱区域,依托低轨轨道设计,保障网络覆盖的稳定性与信号传输效率。

基本信息
目录编号:
57714
目录名称:
STARLINK-30341
国际标识:
2023-129S
轨道中心:
EARTH
卫星名称:
星链-30341
卫星全名:
星链-30341 (STARLINK-30341 )
卫星状态:
在轨 (已飞行1026 天)
发射日期:
2023-08-27 UTC
国别 :
美国 (US)
星等 :
--
轨道信息
数据来源 国际轨道数据
星历时间: 2026-06-18T15:41:10+0800
5小时前
查看轨道信息
半长轴: 6861.207km
偏心率: 0.0001655
轨道倾角: 43.005°
近地点辐角 265.630°
升交点赤经 272.915°
平近点角 94.436°
近地点: 481.934km
远地点: 484.206km
周期: 94.267分钟
每日圈数: 15.275733
详细信息
固有亮度:
5
最大亮度:
0.3
卫星平台:
Starlink v2.0 mini
覆盖范围:
全球
运营商:
太空探索技术公司
运营商所在国:
美国
制造商(研发单位):
太空探索技术公司
制造商所在国:
美国
使用方式:
暂无
卫星简介
星链(Starlink)计划是由太空探索技术公司(SpaceX)提出的一个巨型低轨卫星互联网星座项目,计划在2019年至2024年间在太空搭建由约1.2万颗卫星组成的“星链”网络,其中1584颗将部署在地球上空550千米处的近地轨道,并从2020年开始工作。该卫星仍在工作。
2D轨道图
3D轨道图
轨道高度分析图
轨道倾角分析图
轨道综合分析图
查看轨道综合分析图